Tracking 31023 objects as of 20-Jul-2025
HD Live streaming from Space Station
objects crossing your sky now

THORAD AGENA D DEB

Track THORAD AGENA D DEB now!
10-day predictions


NORAD ID: 4205
Int'l Code: 1969-082BU
Perigee: 754.6 km
Apogee: 851.1 km
Inclination: 70.1 °
Period: 100.8 minutes
Semi major axis: 7173 km
RCS: 0.0519 m2 (small)
Launch date: September 30, 1969
Source: United States (US)
Launch site: AIR FORCE WESTERN TEST RANGE (AFWTR)

Note: This is SATELLITE DEBRIS
Your satellite tracking list
Your tracking list is empty




NASA's NSSDC Master Catalog

Two Line Element Set (TLE):
1 04205U 69082BU  25200.27418082  .00000293  00000-0  13559-3 0  9997
2 04205  70.0603 152.2853 0067267 264.6908  94.6538 14.28816816 53949
Source of the keplerian elements: AFSPC